IGO236K VECC-VOHS

Flight info

Callsign IGO236K
Flight time 2h 1m
Altitude 36000
Route SURUP2C SURUP W41 ANBAS VITUR8
Aircraft A20N/M-SDE2E3FGHIRWXY/LB1

Departure

Time 2026-04-22 12:32
Airport Netaji Subhash Chandra Bose International Airport (VECC)

Arrival

Time 2026-04-22 14:33
Airport Rajiv Gandhi International Airport (VOHS)
Time Latitude Longitude Altitude Speed Heading
2026-04-22 12:12 22.64508 88.44238 24 ft 0 kts 96°
2026-04-22 12:17 22.64508 88.44239 24 ft 0 kts 96°
2026-04-22 12:17 22.64508 88.44240 24 ft 0 kts 96°
2026-04-22 12:18 22.64510 88.44224 24 ft 2 kts 95°
2026-04-22 12:18 22.64511 88.44209 25 ft 2 kts 96°
2026-04-22 12:18 22.64513 88.44193 25 ft 1 kts 96°
2026-04-22 12:18 22.64514 88.44183 25 ft 2 kts 74°
2026-04-22 12:19 22.64505 88.44170 25 ft 2 kts 29°
2026-04-22 12:19 22.64497 88.44166 25 ft 1 kts
2026-04-22 12:19 22.64491 88.44166 25 ft 0 kts
2026-04-22 12:23 22.64493 88.44167 25 ft 0 kts
2026-04-22 12:23 22.64498 88.44167 25 ft 0 kts
2026-04-22 12:23 22.64512 88.44168 25 ft 4 kts
2026-04-22 12:23 22.64571 88.44174 25 ft 12 kts
2026-04-22 12:24 22.64675 88.44186 25 ft 15 kts
2026-04-22 12:24 22.64787 88.44201 28 ft 16 kts
2026-04-22 12:24 22.64907 88.44216 29 ft 17 kts
2026-04-22 12:24 22.65027 88.44232 30 ft 17 kts 17°
2026-04-22 12:25 22.65093 88.44339 28 ft 18 kts 68°
2026-04-22 12:25 22.65175 88.44422 28 ft 16 kts
2026-04-22 12:25 22.65294 88.44435 28 ft 17 kts
2026-04-22 12:25 22.65432 88.44452 27 ft 22 kts
2026-04-22 12:26 22.65596 88.44473 26 ft 23 kts
2026-04-22 12:26 22.65760 88.44487 25 ft 23 kts 356°
2026-04-22 12:26 22.65915 88.44455 26 ft 22 kts 353°
2026-04-22 12:26 22.66069 88.44460 26 ft 21 kts
2026-04-22 12:27 22.66220 88.44482 25 ft 21 kts
2026-04-22 12:27 22.66368 88.44504 25 ft 21 kts
2026-04-22 12:27 22.66515 88.44525 25 ft 21 kts
2026-04-22 12:27 22.66663 88.44548 25 ft 21 kts
2026-04-22 12:28 22.66811 88.44570 26 ft 21 kts
2026-04-22 12:28 22.66964 88.44590 26 ft 22 kts
2026-04-22 12:28 22.67114 88.44608 26 ft 21 kts
2026-04-22 12:28 22.67239 88.44639 25 ft 17 kts 37°
2026-04-22 12:29 22.67305 88.44745 25 ft 17 kts 65°
2026-04-22 12:29 22.67328 88.44868 25 ft 16 kts 94°
2026-04-22 12:29 22.67321 88.44926 25 ft 0 kts 98°
2026-04-22 12:29 22.67320 88.44931 25 ft 1 kts 99°
2026-04-22 12:30 22.67318 88.44946 25 ft 1 kts 99°
2026-04-22 12:30 22.67308 88.44972 25 ft 5 kts 128°
2026-04-22 12:30 22.67259 88.44991 25 ft 9 kts 190°
2026-04-22 12:31 22.67179 88.44980 25 ft 14 kts 184°
2026-04-22 12:31 22.66929 88.44953 26 ft 64 kts 186°
2026-04-22 12:31 22.66249 88.44873 22 ft 127 kts 186°
2026-04-22 12:31 22.65194 88.44766 64 ft 171 kts 182°
2026-04-22 12:32 22.63945 88.44663 370 ft 189 kts 183°
2026-04-22 12:32 22.61383 88.44302 1842 ft 187 kts 189°
2026-04-22 12:32 22.60052 88.43948 2177 ft 208 kts 196°
2026-04-22 12:33 22.58617 88.43452 2517 ft 224 kts 197°
2026-04-22 12:33 22.57083 88.42906 2899 ft 240 kts 198°
2026-04-22 12:33 22.55433 88.42321 3236 ft 257 kts 198°
2026-04-22 12:33 22.53682 88.41698 3584 ft 273 kts 199°
2026-04-22 12:34 22.51834 88.41039 4115 ft 282 kts 198°
2026-04-22 12:34 22.49961 88.40372 4771 ft 285 kts 199°
2026-04-22 12:34 22.48057 88.39697 5454 ft 288 kts 199°
2026-04-22 12:34 22.46161 88.39024 6122 ft 291 kts 199°
2026-04-22 12:35 22.44219 88.38337 6792 ft 294 kts 199°
2026-04-22 12:35 22.42280 88.37652 7487 ft 297 kts 200°
2026-04-22 12:35 22.40307 88.36952 8251 ft 298 kts 200°
2026-04-22 12:35 22.38327 88.36250 8978 ft 301 kts 200°
2026-04-22 12:36 22.36313 88.35536 9684 ft 304 kts 201°
2026-04-22 12:36 22.34283 88.34816 10288 ft 312 kts 201°
2026-04-22 12:36 22.32163 88.34062 10646 ft 328 kts 201°
2026-04-22 12:36 22.29976 88.33289 11251 ft 335 kts 201°
2026-04-22 12:37 22.27735 88.32497 11994 ft 337 kts 201°
2026-04-22 12:37 22.25508 88.31713 12713 ft 340 kts 202°
2026-04-22 12:37 22.23228 88.30907 13412 ft 343 kts 202°
2026-04-22 12:37 22.20954 88.30100 14097 ft 346 kts 202°
2026-04-22 12:38 22.18662 88.29287 14769 ft 348 kts 202°
2026-04-22 12:38 22.16379 88.28478 15388 ft 351 kts 202°
2026-04-22 12:38 22.14012 88.27642 15997 ft 354 kts 202°
2026-04-22 12:38 22.11668 88.26814 16566 ft 357 kts 202°
2026-04-22 12:39 22.09304 88.25976 17104 ft 360 kts 202°
2026-04-22 12:39 22.04522 88.24205 18223 ft 365 kts 203°
2026-04-22 12:39 22.02109 88.23305 18758 ft 367 kts 203°
2026-04-22 12:40 21.99682 88.22402 19292 ft 369 kts 203°
2026-04-22 12:40 21.97217 88.21486 19852 ft 372 kts 203°
2026-04-22 12:40 21.94751 88.20568 20392 ft 374 kts 203°
2026-04-22 12:40 21.92304 88.19660 20927 ft 376 kts 203°
2026-04-22 12:41 21.89824 88.18741 21430 ft 379 kts 203°
2026-04-22 12:41 21.87302 88.17808 21847 ft 384 kts 202°
2026-04-22 12:41 21.84739 88.16863 22328 ft 388 kts 203°
2026-04-22 12:41 21.82165 88.15915 22859 ft 389 kts 203°
2026-04-22 12:42 21.79597 88.14966 23371 ft 391 kts 203°
2026-04-22 12:42 21.77055 88.14026 23881 ft 392 kts 204°
2026-04-22 12:42 21.74441 88.13056 24411 ft 392 kts 204°
2026-04-22 12:42 21.71855 88.12098 24914 ft 393 kts 204°
2026-04-22 12:43 21.69275 88.11144 25393 ft 395 kts 204°
2026-04-22 12:43 21.66646 88.10153 25779 ft 397 kts 207°
2026-04-22 12:43 21.64156 88.08852 26056 ft 397 kts 216°
2026-04-22 12:43 21.61916 88.07165 26467 ft 394 kts 224°
2026-04-22 12:44 21.59892 88.05121 26917 ft 391 kts 229°
2026-04-22 12:44 21.57989 88.03030 27356 ft 392 kts 230°
2026-04-22 12:44 21.56089 88.00920 27769 ft 392 kts 230°
2026-04-22 12:44 21.54199 87.98817 28159 ft 393 kts 230°
2026-04-22 12:45 21.52303 87.96709 28542 ft 394 kts 230°
2026-04-22 12:45 21.50403 87.94598 28924 ft 394 kts 230°
2026-04-22 12:45 21.48477 87.92461 29287 ft 394 kts 230°
2026-04-22 12:45 21.46588 87.90366 29721 ft 392 kts 230°
2026-04-22 12:46 21.44678 87.88248 30215 ft 389 kts 230°
2026-04-22 12:46 21.42818 87.86188 30662 ft 386 kts 230°
2026-04-22 12:46 21.40966 87.84135 31100 ft 383 kts 230°
2026-04-22 12:46 21.39099 87.82068 31515 ft 381 kts 230°
2026-04-22 12:47 21.37262 87.80035 31906 ft 379 kts 229°
2026-04-22 12:47 21.35441 87.78021 32303 ft 377 kts 229°
2026-04-22 12:47 21.33634 87.76025 32654 ft 375 kts 230°
2026-04-22 12:47 21.31805 87.74001 33040 ft 374 kts 229°
2026-04-22 12:48 21.29981 87.71987 33466 ft 371 kts 229°
2026-04-22 12:48 21.28200 87.70021 33867 ft 369 kts 229°
2026-04-22 12:48 21.26394 87.68025 34214 ft 369 kts 229°
2026-04-22 12:48 21.24611 87.66055 34501 ft 369 kts 229°
2026-04-22 12:49 21.22819 87.64082 34749 ft 370 kts 229°
2026-04-22 12:49 21.21021 87.62095 34980 ft 370 kts 229°
2026-04-22 12:49 21.19218 87.60111 35207 ft 371 kts 229°
2026-04-22 12:49 21.17440 87.58151 35425 ft 372 kts 229°
2026-04-22 12:50 21.15618 87.56143 35614 ft 373 kts 229°
2026-04-22 12:50 21.11949 87.52104 35675 ft 374 kts 229°
2026-04-22 12:51 21.08334 87.48127 35686 ft 374 kts 229°
2026-04-22 12:51 21.04693 87.44126 35694 ft 375 kts 229°
2026-04-22 12:52 21.01042 87.40115 35694 ft 375 kts 229°
2026-04-22 12:52 20.97407 87.36121 35693 ft 375 kts 229°
2026-04-22 12:53 20.93762 87.32110 35694 ft 374 kts 229°
2026-04-22 12:53 20.90150 87.28127 35693 ft 375 kts 228°
2026-04-22 12:54 20.86488 87.24133 35691 ft 375 kts 229°
2026-04-22 12:54 20.82848 87.20162 35691 ft 375 kts 229°
2026-04-22 12:55 20.79180 87.16146 35690 ft 376 kts 228°
2026-04-22 12:55 20.75538 87.12161 35691 ft 376 kts 228°
2026-04-22 12:56 20.71876 87.08156 35693 ft 376 kts 228°
2026-04-22 12:56 20.68342 87.04069 35687 ft 374 kts 232°
2026-04-22 12:57 20.65290 86.99587 35685 ft 373 kts 238°
2026-04-22 12:57 20.62775 86.94742 35677 ft 373 kts 244°
2026-04-22 12:58 20.60835 86.89642 35677 ft 373 kts 249°
2026-04-22 12:58 20.59085 86.84430 35677 ft 374 kts 249°
2026-04-22 12:59 20.57330 86.79181 35682 ft 374 kts 249°
2026-04-22 12:59 20.55588 86.73960 35679 ft 374 kts 249°
2026-04-22 13:00 20.53839 86.68713 35683 ft 374 kts 249°
2026-04-22 13:00 20.52104 86.63513 35683 ft 373 kts 249°
2026-04-22 13:01 20.50367 86.58304 35682 ft 374 kts 249°
2026-04-22 13:01 20.48613 86.53052 35682 ft 374 kts 249°
2026-04-22 13:02 20.46859 86.47826 35683 ft 375 kts 249°
2026-04-22 13:02 20.45100 86.42624 35684 ft 374 kts 249°
2026-04-22 13:03 20.43337 86.37402 35682 ft 374 kts 249°
2026-04-22 13:03 20.41574 86.32166 35686 ft 375 kts 249°
2026-04-22 13:04 20.39821 86.26939 35687 ft 375 kts 249°
2026-04-22 13:04 20.38063 86.21714 35689 ft 375 kts 249°
2026-04-22 13:05 20.36301 86.16492 35687 ft 375 kts 248°
2026-04-22 13:05 20.34535 86.11268 35685 ft 375 kts 249°
2026-04-22 13:06 20.32772 86.06047 35682 ft 375 kts 249°
2026-04-22 13:06 20.30996 86.00804 35683 ft 376 kts 249°
2026-04-22 13:07 20.29234 85.95595 35683 ft 376 kts 249°
2026-04-22 13:07 20.27451 85.90332 35685 ft 375 kts 249°
2026-04-22 13:08 20.25682 85.85126 35688 ft 375 kts 248°
2026-04-22 13:08 20.23641 85.80038 35692 ft 375 kts 243°
2026-04-22 13:09 20.21208 85.75129 35692 ft 375 kts 241°
2026-04-22 13:09 20.18738 85.70235 35691 ft 374 kts 241°
2026-04-22 13:10 20.16287 85.65384 35691 ft 375 kts 241°
2026-04-22 13:10 20.13817 85.60510 35690 ft 374 kts 241°
2026-04-22 13:11 20.11341 85.55630 35694 ft 374 kts 241°
2026-04-22 13:11 20.08878 85.50772 35697 ft 375 kts 241°
2026-04-22 13:12 20.06394 85.45885 35700 ft 374 kts 241°
2026-04-22 13:12 20.03932 85.41037 35703 ft 375 kts 241°
2026-04-22 13:13 20.01448 85.36158 35705 ft 375 kts 241°
2026-04-22 13:13 19.98981 85.31298 35709 ft 374 kts 241°
2026-04-22 13:14 19.96511 85.26429 35710 ft 374 kts 241°
2026-04-22 13:14 19.94035 85.21568 35711 ft 375 kts 240°
2026-04-22 13:15 19.91548 85.16692 35718 ft 375 kts 240°
2026-04-22 13:15 19.89043 85.11797 35719 ft 375 kts 240°
2026-04-22 13:16 19.86542 85.06957 35724 ft 375 kts 240°
2026-04-22 13:16 19.84049 85.02109 35738 ft 375 kts 240°
2026-04-22 13:17 19.81553 84.97243 35748 ft 375 kts 240°
2026-04-22 13:17 19.79064 84.92388 35741 ft 375 kts 240°
2026-04-22 13:18 19.76573 84.87529 35744 ft 375 kts 240°
2026-04-22 13:18 19.74074 84.82655 35732 ft 375 kts 240°
2026-04-22 13:19 19.71586 84.77801 35726 ft 375 kts 240°
2026-04-22 13:19 19.69110 84.72973 35722 ft 374 kts 240°
2026-04-22 13:20 19.66606 84.68107 35728 ft 374 kts 240°
2026-04-22 13:20 19.64111 84.63284 35743 ft 374 kts 240°
2026-04-22 13:21 19.61605 84.58438 35756 ft 375 kts 240°
2026-04-22 13:21 19.59105 84.53593 35773 ft 375 kts 240°
2026-04-22 13:22 19.56604 84.48742 35786 ft 375 kts 240°
2026-04-22 13:22 19.54107 84.43903 35806 ft 375 kts 240°
2026-04-22 13:23 19.51600 84.39043 35825 ft 375 kts 240°
2026-04-22 13:23 19.49096 84.34189 35840 ft 375 kts 240°
2026-04-22 13:24 19.46613 84.29348 35856 ft 375 kts 240°
2026-04-22 13:24 19.44110 84.24498 35877 ft 374 kts 240°
2026-04-22 13:25 19.41611 84.19679 35879 ft 375 kts 240°
2026-04-22 13:25 19.39088 84.14842 35864 ft 375 kts 240°
2026-04-22 13:26 19.36569 84.10009 35850 ft 375 kts 240°
2026-04-22 13:26 19.34048 84.05159 35847 ft 375 kts 240°
2026-04-22 13:27 19.31539 84.00337 35851 ft 376 kts 240°
2026-04-22 13:27 19.29025 83.95506 35848 ft 375 kts 240°
2026-04-22 13:28 19.26504 83.90663 35840 ft 375 kts 240°
2026-04-22 13:28 19.23981 83.85823 35826 ft 375 kts 240°
2026-04-22 13:29 19.21466 83.81003 35805 ft 376 kts 240°
2026-04-22 13:29 19.18953 83.76186 35789 ft 376 kts 240°
2026-04-22 13:30 19.16428 83.71354 35779 ft 375 kts 240°
2026-04-22 13:30 19.13896 83.66512 35785 ft 375 kts 240°
2026-04-22 13:31 19.11383 83.61709 35795 ft 375 kts 239°
2026-04-22 13:31 19.08846 83.56862 35815 ft 375 kts 239°
2026-04-22 13:32 19.06325 83.52054 35832 ft 374 kts 240°
2026-04-22 13:32 19.03789 83.47218 35849 ft 375 kts 239°
2026-04-22 13:33 19.01280 83.42437 35864 ft 374 kts 240°
2026-04-22 13:33 18.98743 83.37607 35885 ft 375 kts 239°
2026-04-22 13:34 18.96213 83.32790 35895 ft 375 kts 239°
2026-04-22 13:34 18.93688 83.27964 35904 ft 375 kts 239°
2026-04-22 13:35 18.91164 83.23156 35903 ft 376 kts 239°
2026-04-22 13:35 18.88613 83.18328 35918 ft 375 kts 239°
2026-04-22 13:36 18.86070 83.13547 35943 ft 376 kts 239°
2026-04-22 13:36 18.83512 83.08723 35971 ft 376 kts 239°
2026-04-22 13:37 18.80959 83.03901 36003 ft 375 kts 239°
2026-04-22 13:37 18.78427 82.99115 36038 ft 374 kts 239°
2026-04-22 13:38 18.75900 82.94340 36045 ft 374 kts 239°
2026-04-22 13:38 18.72076 82.87121 36022 ft 375 kts 239°
2026-04-22 13:39 18.69540 82.82336 36006 ft 375 kts 239°
2026-04-22 13:39 18.66980 82.77507 35996 ft 376 kts 239°
2026-04-22 13:40 18.64426 82.72699 35988 ft 375 kts 239°
2026-04-22 13:40 18.61883 82.67913 35984 ft 376 kts 239°
2026-04-22 13:41 18.59327 82.63106 35982 ft 376 kts 239°
2026-04-22 13:41 18.56807 82.58366 35980 ft 377 kts 239°
2026-04-22 13:42 18.54257 82.53580 35977 ft 376 kts 239°
2026-04-22 13:42 18.51691 82.48761 35975 ft 376 kts 239°
2026-04-22 13:43 18.49132 82.43965 35959 ft 377 kts 239°
2026-04-22 13:43 18.46561 82.39143 35934 ft 376 kts 239°
2026-04-22 13:44 18.44007 82.34360 35923 ft 377 kts 238°
2026-04-22 13:44 18.41446 82.29543 35906 ft 377 kts 239°
2026-04-22 13:45 18.38877 82.24723 35898 ft 376 kts 239°
2026-04-22 13:45 18.36328 82.19949 35896 ft 376 kts 238°
2026-04-22 13:46 18.33761 82.15147 35888 ft 377 kts 238°
2026-04-22 13:46 18.31180 82.10327 35880 ft 377 kts 238°
2026-04-22 13:47 18.28604 82.05512 35867 ft 377 kts 238°
2026-04-22 13:47 18.26039 82.00732 35851 ft 376 kts 238°
2026-04-22 13:48 18.23449 81.95937 35838 ft 376 kts 238°
2026-04-22 13:48 18.20872 81.91166 35837 ft 376 kts 238°
2026-04-22 13:49 18.18292 81.86388 35837 ft 376 kts 238°
2026-04-22 13:49 18.15720 81.81614 35830 ft 375 kts 238°
2026-04-22 13:50 18.13136 81.76825 35823 ft 376 kts 238°
2026-04-22 13:50 18.10557 81.72044 35813 ft 376 kts 238°
2026-04-22 13:51 18.07987 81.67282 35800 ft 376 kts 238°
2026-04-22 13:51 18.05398 81.62491 35798 ft 376 kts 238°
2026-04-22 13:52 18.02801 81.57689 35788 ft 377 kts 238°
2026-04-22 13:52 18.00211 81.52904 35787 ft 376 kts 238°
2026-04-22 13:53 17.97637 81.48146 35787 ft 377 kts 238°
2026-04-22 13:53 17.95038 81.43346 35785 ft 377 kts 238°
2026-04-22 13:54 17.92449 81.38570 35786 ft 377 kts 238°
2026-04-22 13:54 17.89862 81.33791 35789 ft 377 kts 238°
2026-04-22 13:55 17.87255 81.28994 35790 ft 377 kts 238°
2026-04-22 13:55 17.84668 81.24238 35802 ft 377 kts 238°
2026-04-22 13:56 17.82042 81.19433 35797 ft 377 kts 238°
2026-04-22 13:56 17.79552 81.14892 35795 ft 377 kts 238°
2026-04-22 13:57 17.76933 81.10101 35784 ft 378 kts 238°
2026-04-22 13:57 17.74334 81.05343 35767 ft 377 kts 238°
2026-04-22 13:58 17.71707 81.00530 35760 ft 378 kts 238°
2026-04-22 13:58 17.69111 80.95776 35766 ft 378 kts 238°
2026-04-22 13:59 17.66496 80.90990 35766 ft 377 kts 238°
2026-04-22 13:59 17.63876 80.86197 35769 ft 377 kts 238°
2026-04-22 14:00 17.61267 80.81427 35769 ft 377 kts 238°
2026-04-22 14:00 17.58664 80.76672 35768 ft 378 kts 238°
2026-04-22 14:01 17.56042 80.71890 35768 ft 378 kts 238°
2026-04-22 14:01 17.53421 80.67109 35771 ft 378 kts 238°
2026-04-22 14:02 17.50815 80.62358 35770 ft 378 kts 238°
2026-04-22 14:02 17.48181 80.57558 35767 ft 378 kts 238°
2026-04-22 14:03 17.45561 80.52790 35764 ft 378 kts 238°
2026-04-22 14:03 17.42922 80.47989 35763 ft 379 kts 238°
2026-04-22 14:04 17.40307 80.43232 35763 ft 378 kts 237°
2026-04-22 14:04 17.37681 80.38454 35758 ft 378 kts 238°
2026-04-22 14:05 17.35067 80.33697 35761 ft 379 kts 237°
2026-04-22 14:06 17.31158 80.26557 35760 ft 378 kts 237°
2026-04-22 14:06 17.28530 80.21772 35760 ft 378 kts 238°
2026-04-22 14:07 17.26341 80.16727 35757 ft 382 kts 246°
2026-04-22 14:07 17.24894 80.11348 35757 ft 387 kts 254°
2026-04-22 14:08 17.24238 80.05724 35759 ft 393 kts 261°
2026-04-22 14:08 17.24162 80.00002 35761 ft 394 kts 263°
2026-04-22 14:09 17.24127 79.94281 35766 ft 393 kts 263°
2026-04-22 14:09 17.24093 79.88539 35338 ft 393 kts 263°
2026-04-22 14:09 17.24078 79.85688 34944 ft 390 kts 263°
2026-04-22 14:10 17.24062 79.82877 34452 ft 388 kts 263°
2026-04-22 14:10 17.24046 79.80050 33904 ft 386 kts 263°
2026-04-22 14:10 17.24028 79.77260 33336 ft 387 kts 263°
2026-04-22 14:10 17.24010 79.74468 32736 ft 387 kts 263°
2026-04-22 14:11 17.23990 79.71637 32187 ft 387 kts 263°
2026-04-22 14:11 17.23968 79.68835 31568 ft 389 kts 264°
2026-04-22 14:11 17.23946 79.65981 30808 ft 394 kts 264°
2026-04-22 14:11 17.23922 79.63133 29909 ft 402 kts 265°
2026-04-22 14:12 17.23898 79.60182 29042 ft 409 kts 266°
2026-04-22 14:12 17.23876 79.57211 28097 ft 415 kts 266°
2026-04-22 14:12 17.23856 79.54166 27355 ft 416 kts 266°
2026-04-22 14:12 17.23837 79.51175 26681 ft 416 kts 267°
2026-04-22 14:13 17.23817 79.48119 26032 ft 414 kts 267°
2026-04-22 14:13 17.23797 79.45120 25432 ft 412 kts 268°
2026-04-22 14:13 17.23777 79.42172 24879 ft 409 kts 268°
2026-04-22 14:13 17.23756 79.39226 24334 ft 405 kts 268°
2026-04-22 14:14 17.23733 79.36271 23794 ft 402 kts 268°
2026-04-22 14:14 17.23710 79.33368 23206 ft 400 kts 268°
2026-04-22 14:14 17.23689 79.30445 22635 ft 398 kts 268°
2026-04-22 14:14 17.23666 79.27599 22111 ft 395 kts 269°
2026-04-22 14:15 17.23644 79.24717 21574 ft 393 kts 269°
2026-04-22 14:15 17.23622 79.21870 21059 ft 390 kts 269°
2026-04-22 14:15 17.23599 79.19053 20555 ft 387 kts 269°
2026-04-22 14:15 17.23574 79.16235 20043 ft 385 kts 269°
2026-04-22 14:16 17.23547 79.13467 19526 ft 383 kts 269°
2026-04-22 14:16 17.23421 79.10676 18995 ft 382 kts 266°
2026-04-22 14:16 17.23123 79.07911 18472 ft 381 kts 262°
2026-04-22 14:16 17.22702 79.05190 17939 ft 380 kts 262°
2026-04-22 14:17 17.22267 79.02487 17428 ft 379 kts 262°
2026-04-22 14:17 17.21829 78.99760 16924 ft 377 kts 262°
2026-04-22 14:17 17.21399 78.97063 16437 ft 376 kts 262°
2026-04-22 14:17 17.20974 78.94396 15962 ft 374 kts 262°
2026-04-22 14:18 17.20544 78.91700 15488 ft 371 kts 262°
2026-04-22 14:18 17.20123 78.89070 15036 ft 369 kts 262°
2026-04-22 14:18 17.19698 78.86418 14571 ft 366 kts 262°
2026-04-22 14:18 17.19281 78.83807 14118 ft 364 kts 262°
2026-04-22 14:19 17.18864 78.81210 13668 ft 362 kts 262°
2026-04-22 14:19 17.18450 78.78622 13219 ft 359 kts 262°
2026-04-22 14:19 17.18037 78.76046 12766 ft 357 kts 262°
2026-04-22 14:19 17.17630 78.73504 12309 ft 356 kts 262°
2026-04-22 14:20 17.16818 78.68438 11417 ft 352 kts 262°
2026-04-22 14:20 17.16415 78.65926 11031 ft 349 kts 262°
2026-04-22 14:20 17.16012 78.63414 10909 ft 350 kts 262°
2026-04-22 14:21 17.15211 78.58464 10899 ft 329 kts 262°
2026-04-22 14:21 17.14844 78.56204 10895 ft 313 kts 262°
2026-04-22 14:22 17.14456 78.51781 10883 ft 300 kts 270°
2026-04-22 14:22 17.14413 78.49591 10589 ft 297 kts 271°
2026-04-22 14:22 17.14345 78.45269 9749 ft 299 kts 270°
2026-04-22 14:23 17.14306 78.43084 9375 ft 298 kts 271°
2026-04-22 14:23 17.14265 78.40911 9015 ft 296 kts 270°
2026-04-22 14:23 17.14223 78.38773 8650 ft 295 kts 270°
2026-04-22 14:23 17.14181 78.36653 8262 ft 295 kts 270°
2026-04-22 14:24 17.14138 78.34487 7891 ft 293 kts 269°
2026-04-22 14:24 17.14094 78.32391 7603 ft 288 kts 269°
2026-04-22 14:24 17.14050 78.30329 7200 ft 279 kts 269°
2026-04-22 14:24 17.14009 78.28335 6886 ft 270 kts 269°
2026-04-22 14:25 17.13970 78.26391 6588 ft 269 kts 269°
2026-04-22 14:25 17.13932 78.24429 6284 ft 269 kts 269°
2026-04-22 14:25 17.13902 78.22482 5984 ft 267 kts 269°
2026-04-22 14:25 17.13877 78.20555 5685 ft 265 kts 269°
2026-04-22 14:26 17.13854 78.18650 5381 ft 260 kts 269°
2026-04-22 14:26 17.14037 78.16778 5054 ft 257 kts 293°
2026-04-22 14:26 17.15130 78.15371 4912 ft 246 kts 333°
2026-04-22 14:26 17.16660 78.14899 4895 ft 216 kts
2026-04-22 14:27 17.18024 78.15101 4975 ft 197 kts 21°
2026-04-22 14:27 17.19209 78.15784 4943 ft 194 kts 42°
2026-04-22 14:27 17.20073 78.16858 4930 ft 192 kts 59°
2026-04-22 14:27 17.20751 78.18067 4927 ft 192 kts 62°
2026-04-22 14:28 17.21409 78.19267 4904 ft 192 kts 61°
2026-04-22 14:28 17.22087 78.20483 4780 ft 192 kts 62°
2026-04-22 14:28 17.22573 78.21764 4661 ft 190 kts 78°
2026-04-22 14:28 17.22692 78.23138 4551 ft 188 kts 89°
2026-04-22 14:29 17.22703 78.24441 4414 ft 176 kts 90°
2026-04-22 14:29 17.22704 78.25671 4281 ft 165 kts 90°
2026-04-22 14:29 17.22709 78.26827 4140 ft 154 kts 90°
2026-04-22 14:29 17.22716 78.27805 4088 ft 157 kts 90°
2026-04-22 14:30 17.22728 78.28910 4009 ft 156 kts 90°
2026-04-22 14:30 17.22742 78.30067 4009 ft 157 kts 90°
2026-04-22 14:30 17.22755 78.31182 3926 ft 150 kts 90°
2026-04-22 14:30 17.22759 78.32248 3673 ft 144 kts 91°
2026-04-22 14:31 17.22751 78.33266 3354 ft 140 kts 92°
2026-04-22 14:31 17.22725 78.34272 3114 ft 139 kts 93°
2026-04-22 14:31 17.22705 78.35291 2928 ft 139 kts 91°
2026-04-22 14:31 17.22725 78.36308 2752 ft 140 kts 88°
2026-04-22 14:32 17.22748 78.37305 2585 ft 141 kts 90°
2026-04-22 14:32 17.22738 78.38329 2449 ft 141 kts 88°
2026-04-22 14:32 17.22783 78.39352 2325 ft 141 kts 88°
2026-04-22 14:32 17.22829 78.40380 2202 ft 141 kts 88°
2026-04-22 14:33 17.22853 78.41382 2042 ft 142 kts 89°
2026-04-22 14:33 17.22865 78.42387 1982 ft 129 kts 91°
2026-04-22 14:33 17.22871 78.43044 2003 ft 46 kts 89°
2026-04-22 14:33 17.22878 78.43265 2009 ft 26 kts 86°
2026-04-22 14:34 17.22903 78.43431 2015 ft 21 kts 65°
2026-04-22 14:34 17.22979 78.43546 2020 ft 17 kts 54°
2026-04-22 14:34 17.23042 78.43639 2023 ft 14 kts 57°
2026-04-22 14:34 17.23093 78.43722 2026 ft 12 kts 57°
2026-04-22 14:35 17.23135 78.43719 2025 ft 10 kts 292°
2026-04-22 14:35 17.23208 78.43691 2022 ft 12 kts 356°
2026-04-22 14:35 17.23307 78.43685 2020 ft 15 kts 356°
2026-04-22 14:35 17.23398 78.43643 2016 ft 16 kts 267°
2026-04-22 14:36 17.23369 78.43529 2013 ft 17 kts 239°
2026-04-22 14:36 17.23345 78.43413 2011 ft 16 kts 262°
2026-04-22 14:36 17.23334 78.43294 2010 ft 9 kts 280°
2026-04-22 14:36 17.23364 78.43293 2009 ft 6 kts
2026-04-22 14:37 17.23418 78.43285 2007 ft 9 kts 358°
2026-04-22 14:37 17.23437 78.43286 2007 ft 1 kts
2026-04-22 14:37 17.23438 78.43286 2007 ft 0 kts